KC7NGC-B Weather Reports


time (UTC)temp
F
wind
direction
speed
knots
gust
knots
rain 1hr
in
rain 24hr
in
rain mn
in
humidity
%
barometer
mb
20260906154625 54 213 5.2 7.8 0.01 0.02 0.02 1 1018.1
20260906153622 54 219 6.1 7.0 0.01 0.01 0.01 1 1018.2
20260906152619 56 208 5.2 7.0 0.01 0.01 0.01 1 1018.2
20260906151635 56 218 3.5 4.3 0.01 0.01 0.01 1 1017.9
20260906150632 56 232 3.5 4.3 0.01 0.01 0.01 1 1017.5
20260906145629 55 311 5.2 7.8 0.01 0.01 0.01 1 1017.1
20260906144625 56 320 4.3 7.0 0.00 0.00 0.00 1 1016.6
20260906143622 56 322 4.3 6.1 0.00 0.00 0.00 1 1016.9
20260906142619 57 339 2.6 4.3 0.00 0.00 0.00 1 1016.9
20260906141635 58 331 3.5 6.1 0.00 0.00 0.00 1 1017.0
20260906140632 57 305 2.6 4.3 0.00 0.00 0.00 1 1017.0
20260906135628 56 345 3.5 4.3 0.00 0.00 0.00 1 1016.6
20260906134625 55 353 3.5 5.2 0.00 0.00 0.00 1 1016.6
20260906133641 55 343 1.7 2.6 0.00 0.00 0.00 1 1016.6
20260906132618 55 9 2.6 3.5 0.00 0.00 0.00 1 1016.5
20260906131635 56 351 2.6 4.3 0.00 0.00 0.00 1 1016.2
20260906130652 56 324 4.3 6.1 0.00 0.00 0.00 1 1016.3
20260906125628 56 286 2.6 4.3 0.00 0.00 0.00 1 1016.5
20260906124625 56 325 4.3 5.2 0.00 0.00 0.00 1 1016.5
20260906123641 56 326 2.6 4.3 0.00 0.00 0.00 1 1016.9
20260906122618 56 334 3.5 4.3 0.00 0.00 0.00 1 1016.6
20260906121635 56 331 5.2 7.0 0.00 0.00 0.00 1 1016.9
20260906120632 57 342 5.2 7.0 0.00 0.00 0.00 1 1016.9
20260906115629 57 347 6.1 7.0 0.00 0.00 0.00 1 1016.8
20260906114625 58 349 6.1 7.0 0.00 0.00 0.00 1 1017.0
20260906113622 57 1 2.6 3.5 0.00 0.00 0.00 1 1016.8
20260906112619 56 357 0.9 1.7 0.00 0.00 0.00 1 1017.0
20260906111640 56 0.0 0.0 0.00 0.00 0.00 1 1016.9
20260906110635 56 14 0.9 1.7 0.00 0.00 0.00 1 1017.0
20260906105633 56 325 1.7 1.7 0.00 0.00 0.00 1 1017.0
20260906104629 56 0.0 0.9 0.00 0.00 0.00 1 1017.0
20260906103626 56 342 0.9 1.7 0.00 0.00 0.00 1 1017.1
20260906102623 56 316 3.5 3.5 0.00 0.00 0.00 1 1017.0
20260906101619 57 355 4.3 6.1 0.00 0.00 0.00 1 1016.9
20260906100616 57 352 7.8 10.4 0.00 0.00 0.00 1 1016.9
20260906095633 57 356 6.1 7.8 0.00 0.00 0.00 1 1017.0
20260906094630 57 355 5.2 7.8 0.00 0.00 0.00 1 1016.9
20260906093626 55 338 4.3 5.2 0.00 0.00 0.00 1 1017.0
20260906092622 55 318 4.3 5.2 0.00 0.00 0.00 1 1017.0
20260906091619 55 312 2.6 2.6 0.00 0.00 0.00 1 1016.9
20260906090616 55 257 0.9 1.7 0.00 0.00 0.00 1 1017.0
20260906085633 55 280 0.9 1.7 0.00 0.00 0.00 1 1017.2
20260906084710 55 308 2.6 3.5 0.00 0.00 0.00 1 1017.2
20260906083627 56 315 4.3 6.1 0.00 0.00 0.00 1 1017.3
20260906082623 56 343 4.3 8.7 0.00 0.00 0.00 1 1017.4
20260906081640 56 359 6.1 10.4 0.00 0.00 0.00 1 1017.4
20260906080616 56 326 6.1 9.6 0.00 0.00 0.00 1 1017.5
20260906075633 57 335 6.1 7.0 0.00 0.00 0.00 1 1017.4
20260906074629 58 336 4.3 7.0 0.00 0.00 0.00 1 1017.5
20260906073626 58 331 7.0 8.7 0.00 0.00 0.00 1 1017.3
20260906072623 58 328 4.3 5.2 0.00 0.00 0.00 1 1017.6
20260906071619 59 338 3.5 5.2 0.00 0.00 0.00 1 1017.4
20260906070635 59 341 5.2 7.0 0.00 0.00 0.00 1 1017.5
20260906065632 59 335 2.6 4.3 0.00 0.00 0.00 1 1017.7
20260906064629 58 345 2.6 3.5 0.00 0.00 0.00 1 1017.6
20260906063625 57 326 0.9 1.7 0.00 0.00 0.00 1 1017.7
20260906062622 58 253 0.9 1.7 0.00 0.00 0.00 1 1017.9
20260906061618 58 295 2.6 2.6 0.00 0.00 0.00 1 1017.8
20260906060635 57 330 2.6 4.3 0.00 0.00 0.00 1 1017.7
20260906055631 57 353 1.7 1.7 0.00 0.00 0.00 1 1017.8
20260906054627 58 299 1.7 1.7 0.00 0.00 0.00 1 1017.7
20260906053624 59 315 2.6 2.6 0.00 0.00 0.00 1 1017.7
20260906052620 59 326 3.5 5.2 0.00 0.00 0.00 1 1017.7
20260906051619 60 327 3.5 4.3 0.00 0.00 0.00 1 1017.6
20260906050632 60 338 3.5 4.3 0.00 0.00 0.00 1 1017.5
20260906045628 61 323 2.6 3.5 0.00 0.00 0.00 1 1017.9
20260906044624 61 344 2.6 3.5 0.00 0.00 0.00 1 1017.8
20260906043640 62 318 2.6 2.6 0.00 0.00 0.00 1 1017.9
20260906042616 62 344 3.5 4.3 0.00 0.00 0.00 1 1017.9
20260906041632 62 343 3.5 4.3 0.00 0.00 0.00 1 1017.7
20260906040628 62 343 3.5 4.3 0.00 0.00 0.00 1 1017.8
20260906035625 63 322 2.6 3.5 0.00 0.00 0.00 1 1017.7
20260906034621 63 341 2.6 2.6 0.00 0.00 0.00 1 1017.8
20260906033618 64 344 2.6 3.5 0.00 0.00 0.00 1 1017.6
20260906032633 65 332 2.6 3.5 0.00 0.00 0.00 1 1017.6
20260906031629 65 318 4.3 5.2 0.00 0.00 0.00 1 1017.5
20260906030625 65 329 4.3 5.2 0.00 0.00 0.00 1 1017.4
20260906025621 66 318 5.2 7.8 0.00 0.00 0.00 1 1017.3
20260906024618 66 314 3.5 5.2 0.00 0.00 0.00 1 1017.3
20260906023634 67 315 4.3 5.2 0.00 0.00 0.00 1 1017.3
20260906022630 68 327 2.6 4.3 0.00 0.00 0.00 1 1017.3
20260906021626 69 336 2.6 5.2 0.00 0.00 0.00 1 1017.2
20260906020623 69 333 4.3 5.2 0.00 0.00 0.00 1 1017.3
20260906015619 71 319 2.6 4.3 0.00 0.00 0.00 1 1017.1
20260906014635 71 318 2.6 3.5 0.00 0.00 0.00 1 1017.2
20260906013651 71 13 0.9 1.7 0.00 0.00 0.00 1 1017.4
20260906012627 72 351 1.7 2.6 0.00 0.00 0.00 1 1017.4
20260906011623 72 1 2.6 3.5 0.00 0.00 0.00 1 1017.2
20260906010619 73 18 2.6 2.6 0.00 0.00 0.00 1 1017.2
20260906005635 74 343 1.7 2.6 0.00 0.00 0.00 1 1017.3
20260906004651 74 0.0 0.0 0.00 0.00 0.00 1 1017.3
20260906003628 73 32 0.9 2.6 0.00 0.00 0.00 1 1017.2
20260906002624 73 52 1.7 1.7 0.00 0.00 0.00 1 1017.4
20260906001620 72 32 2.6 3.5 0.00 0.00 0.00 1 1017.4
20260906000616 73 23 3.5 4.3 0.00 0.00 0.00 1 1017.5
20260905235633 73 322 2.6 3.5 0.00 0.00 0.00 1 1017.4
20260905234629 73 10 3.5 4.3 0.00 0.00 0.00 1 1017.5
20260905233625 73 321 3.5 5.2 0.00 0.00 0.00 1 1017.5
20260905232701 74 10 3.5 5.2 0.00 0.00 0.00 1 1017.5
20260905231617 74 34 2.6 3.5 0.00 0.00 0.00 1 1017.4
20260905230634 73 32 1.7 2.6 0.00 0.00 0.00 1 1017.7
20260905225630 72 216 1.7 2.6 0.00 0.00 0.00 1 1017.6
20260905224628 73 38 1.7 3.5 0.00 0.00 0.00 1 1017.7
20260905223622 72 103 1.7 2.6 0.00 0.00 0.00 1 1017.7
20260905222619 71 60 3.5 6.1 0.00 0.00 0.00 1 1017.7
20260905221635 72 302 2.6 4.3 0.00 0.00 0.00 1 1018.0
20260905220631 71 313 2.6 5.2 0.00 0.00 0.00 1 1018.0
20260905215627 70 110 1.7 1.7 0.00 0.00 0.00 1 1018.0
20260905214623 72 316 5.2 8.7 0.00 0.00 0.00 1 1018.1
20260905213639 71 312 4.3 7.0 0.00 0.00 0.00 1 1018.3
20260905212636 71 32 2.6 4.3 0.00 0.00 0.00 1 1018.3
20260905211632 70 40 3.5 5.2 0.00 0.00 0.00 1 1018.5
20260905210628 70 238 2.6 4.3 0.00 0.00 0.00 1 1018.7
20260905205624 70 311 2.6 3.5 0.00 0.00 0.00 1 1018.6
20260905204700 70 2 5.2 7.8 0.00 0.00 0.00 1 1018.5
20260905203616 69 338 4.3 7.8 0.00 0.00 0.00 1 1018.5
20260905202713 69 27 3.5 5.2 0.00 0.00 0.00 1 1018.6
20260905201628 70 341 5.2 9.6 0.00 0.00 0.00 1 1018.6
20260905200649 69 320 5.2 9.6 0.00 0.00 0.00 1 1018.7
20260905195641 68 330 4.3 7.0 0.00 0.00 0.00 1 1018.9
20260905194617 69 336 7.8 11.3 0.00 0.00 0.00 1 1018.9
20260905193653 68 317 6.1 7.0 0.00 0.00 0.00 1 1018.9
20260905192629 68 357 9.6 13.0 0.00 0.00 0.00 1 1018.7
20260905191625 69 338 7.8 9.6 0.00 0.00 0.00 1 1019.0
20260905190621 67 355 7.0 10.4 0.00 0.00 0.00 1 1019.0
20260905185617 67 289 4.3 6.1 0.00 0.00 0.00 1 1019.2
20260905184654 67 321 5.2 8.7 0.00 0.00 0.00 1 1019.0
20260905183630 65 282 3.5 4.3 0.00 0.00 0.00 1 1019.3
20260905182627 65 358 7.0 11.3 0.00 0.00 0.00 1 1019.3
20260905181622 64 327 1.7 3.5 0.00 0.00 0.00 1 1019.4
20260905180639 65 358 4.3 7.8 0.00 0.00 0.00 1 1019.6
20260905175634 64 352 5.2 7.0 0.00 0.00 0.00 1 1019.6
20260905174710 64 22 2.6 5.2 0.00 0.00 0.00 1 1019.8
20260905173626 64 6 5.2 7.8 0.00 0.00 0.00 1 1019.8
20260905172622 64 11 5.2 7.0 0.00 0.00 0.00 1 1019.7
20260905171618 63 8 5.2 7.8 0.00 0.00 0.00 1 1019.7
20260905170635 62 357 7.0 8.7 0.00 0.00 0.00 1 1019.7
20260905165631 62 3 4.3 5.2 0.00 0.00 0.00 1 1019.7
20260905164627 63 18 4.3 5.2 0.00 0.00 0.00 1 1019.7
20260905163623 62 360 6.1 7.8 0.00 0.00 0.00 1 1019.3
20260905162620 62 360 7.0 8.7 0.00 0.00 0.00 1 1019.2
20260905161636 61 352 6.1 8.7 0.00 0.00 0.00 1 1019.1
20260905160632 60 327 7.0 8.7 0.00 0.00 0.00 1 1019.0
20260905155628 60 314 6.1 7.8 0.00 0.00 0.00 1 1019.2